Waarnemingen

Advertentie
Mijn weer
Falsterbo A, Zweden (2615): temperatuur & dauwpunt: 22.10.2020 03:00:00 - 28.10.2020 03:00:00 (CET)Falsterbo A, Zweden (2615): windsnelheid & windstoten: 22.10.2020 03:00:00 - 28.10.2020 03:00:00 (CET)Falsterbo A, Zweden (2615): windrichting: 22.10.2020 03:00:00 - 28.10.2020 03:00:00 (CET)Falsterbo A, Zweden (2615): luchtdruk: 22.10.2020 03:00:00 - 28.10.2020 03:00:00 (CET)Falsterbo A, Zweden (2615): zicht: 22.10.2020 03:00:00 - 28.10.2020 03:00:00 (CET)Falsterbo A, Zweden (2615): neerslag: 22.10.2020 03:00:00 - 28.10.2020 03:00:00 (CET)
Datum & Tijd tt [°C] td [°C] ff [km/u] ff [kn] fx [km/u] fx [kn] dd ppp [hPa] vv [km] rr [mm]
28.10.2020 03:00:00 10,6 7,5 47 25 57 31 ZZW 1002,2 50 0,0
28.10.2020 02:00:00 10,9 7,8 42 23 54 29 ZZW 1002,7 50 0,0
28.10.2020 01:00:00 11,1 7,6 42 23 55 30 ZZW 1003,1 50 0,0
28.10.2020 00:00:00 11,0 7,9 44 24 56 30 ZZW 1003,4 50 0,0
27.10.2020 23:00:00 10,9 7,6 41 22 52 28 ZZW 1003,7 50 0,0
27.10.2020 22:00:00 10,9 7,8 42 23 54 29 ZZW 1004,1 50 0,0
27.10.2020 21:00:00 11,0 7,7 39 21 - - ZZW 1004,1 47 0,0
27.10.2020 20:00:00 11,1 7,4 40 21 52 28 ZZW 1004,1 47 0,0
27.10.2020 19:00:00 11,4 7,5 39 21 47 26 ZZW 1004,1 45 0,0
27.10.2020 18:00:00 11,6 7,5 34 18 49 26 ZW 1004,1 49 0,0
27.10.2020 17:00:00 11,1 7,8 32 17 41 22 ZZW 1003,9 45 0,0
27.10.2020 16:00:00 11,3 7,4 31 17 46 25 ZW 1003,9 43 0,0
27.10.2020 15:00:00 11,3 7,6 35 19 48 26 ZZW 1004,2 46 0,0
27.10.2020 14:00:00 11,4 7,7 38 20 51 27 ZW 1004,1 44 0,0
27.10.2020 13:00:00 11,2 7,9 37 20 49 26 ZZW 1004,0 43 0,0
27.10.2020 12:00:00 11,2 7,9 36 19 45 24 ZZW 1004,0 37 0,0
27.10.2020 11:00:00 11,0 7,7 36 19 45 25 ZZW 1004,1 44 0,0
27.10.2020 10:00:00 10,5 8,1 32 18 42 23 ZZW 1003,9 37 0,0
27.10.2020 09:00:00 10,7 7,6 29 16 48 26 ZZW 1003,6 39 0,0
27.10.2020 08:00:00 10,7 8,1 36 20 44 24 ZZW 1003,4 39 0,0
27.10.2020 07:00:00 10,4 7,8 33 18 43 23 ZZW 1003,1 45 0,0
27.10.2020 06:00:00 10,5 7,6 32 18 41 22 ZZW 1002,7 42 0,0
27.10.2020 05:00:00 10,7 7,9 31 17 39 21 ZZW 1002,2 48 0,0
27.10.2020 04:00:00 10,7 7,9 30 16 39 21 ZZW 1002,0 47 0,0
27.10.2020 03:00:00 10,9 7,2 29 16 37 20 ZW 1001,9 50 0,0
27.10.2020 02:00:00 10,9 7,4 27 14 43 23 ZW 1002,0 44 0,0
27.10.2020 01:00:00 11,3 7,6 35 19 44 24 WZW 1002,1 36 0,0
27.10.2020 00:00:00 11,6 9,2 30 16 41 22 ZW 1001,8 31 0,0
26.10.2020 23:00:00 11,6 9,2 31 17 39 21 ZW 1001,7 36 0,0
26.10.2020 22:00:00 11,5 9,7 31 17 39 21 ZZW 1001,8 46 0,0
26.10.2020 21:00:00 11,3 9,9 27 15 38 21 ZZW 1001,7 50 0,0
26.10.2020 20:00:00 11,1 10,5 28 15 37 20 ZZW 1001,8 50 0,0
26.10.2020 19:00:00 11,3 10,8 30 16 41 22 ZZO 1001,1 15 0,5
26.10.2020 18:00:00 11,1 10,5 25 13 36 20 Z 1001,5 11 1,7
26.10.2020 17:00:00 11,4 10,8 26 14 32 18 Z 1001,5 11 0,6
26.10.2020 16:00:00 11,4 10,8 24 13 30 16 ZZW 1001,4 14 0,4
26.10.2020 15:00:00 11,7 10,9 27 14 33 18 Z 1001,2 17 0,4
26.10.2020 14:00:00 11,9 11,1 26 14 33 18 Z 1001,6 15 0,6
26.10.2020 13:00:00 12,4 10,8 21 11 25 14 Z 1001,7 25 0,0
26.10.2020 12:00:00 12,5 10,6 16 9 22 12 ZZW 1001,7 50 0,0
26.10.2020 11:00:00 12,4 10,3 20 11 31 17 ZW 1002,1 50 0,0
26.10.2020 10:00:00 12,4 10,3 28 15 34 18 ZZW 1002,0 50 0,0
26.10.2020 09:00:00 12,3 11,2 24 13 31 17 ZZW 1001,6 46 0,0
26.10.2020 08:00:00 11,7 10,8 22 12 29 16 Z 1001,3 42 0,0
26.10.2020 07:00:00 11,4 10,3 19 11 27 15 ZZW 1001,3 42 0,0
26.10.2020 06:00:00 11,8 10,4 19 11 26 14 ZZW 1001,4 50 0,0
26.10.2020 05:00:00 11,6 10,2 18 10 23 12 ZZW 1000,9 50 0,0
26.10.2020 04:00:00 11,8 10,2 20 11 26 14 ZZW 1001,3 50 0,0
26.10.2020 03:00:00 11,6 10,0 17 9 26 14 ZW 1001,3 50 0,0
26.10.2020 02:00:00 11,9 10,5 21 11 30 16 ZW 1001,8 44 0,0
26.10.2020 01:00:00 12,0 11,1 23 12 32 18 ZW 1001,6 49 0,1
26.10.2020 00:00:00 12,2 11,4 25 13 40 22 ZW 1001,6 49 0,1
25.10.2020 23:00:00 12,4 11,9 34 18 46 25 ZZW 1001,4 11 1,0
25.10.2020 22:00:00 12,3 11,8 30 16 38 20 Z 1001,8 6 1,8
25.10.2020 21:00:00 12,4 11,9 21 11 33 18 ZZW 1002,3 7 3,5
25.10.2020 20:00:00 12,5 12,0 26 14 39 21 ZZW 1002,4 7 1,2
25.10.2020 19:00:00 12,5 11,9 29 16 41 22 Z 1002,5 7 1,1
25.10.2020 18:00:00 12,5 11,7 33 18 42 23 Z 1002,7 9 0,8
25.10.2020 17:00:00 13,0 11,6 32 17 40 21 Z 1002,6 27 0,0
25.10.2020 16:00:00 12,8 11,7 31 17 42 23 Z 1002,7 30 0,2
25.10.2020 15:00:00 13,5 11,0 35 19 45 25 Z 1002,6 50 0,0
25.10.2020 14:00:00 13,4 10,9 36 19 48 26 Z 1002,2 49 0,0
25.10.2020 13:00:00 13,1 11,3 40 21 51 28 Z 1003,2 36 0,0
25.10.2020 12:00:00 13,6 10,6 40 21 53 29 Z 1003,4 48 0,0
25.10.2020 11:00:00 13,5 10,7 38 21 53 29 Z 1003,3 50 0,0
25.10.2020 10:00:00 14,0 10,8 42 23 54 29 Z 1003,3 50 0,0
25.10.2020 09:00:00 14,0 11,1 37 20 54 29 Z 1003,7 50 0,0
25.10.2020 08:00:00 13,4 10,8 42 23 52 28 Z 1003,9 50 0,0
25.10.2020 07:00:00 13,3 10,8 37 20 49 26 Z 1004,2 50 0,0
25.10.2020 06:00:00 13,2 10,7 37 20 46 25 Z 1004,3 50 0,0
25.10.2020 05:00:00 13,2 10,9 35 19 46 25 Z 1005,0 50 0,0
25.10.2020 04:00:00 13,0 10,9 33 18 43 23 Z 1005,3 50 0,0
25.10.2020 03:00:00 13,0 11,1 34 18 41 22 Z 1005,9 50 0,0
25.10.2020 02:00:00 12,8 11,2 30 16 40 22 Z 1006,6 43 0,0
25.10.2020 01:00:00 - - - - - - - - - -
25.10.2020 00:00:00 12,3 11,2 27 15 35 19 ZZW 1007,6 18 0,0
24.10.2020 23:00:00 11,9 10,6 28 15 40 22 ZZW 1007,8 14 0,0
24.10.2020 22:00:00 12,5 11,2 28 15 38 20 ZZW 1008,2 14 0,0
24.10.2020 21:00:00 12,5 10,6 26 14 36 19 ZZW 1008,6 42 0,0
24.10.2020 20:00:00 12,4 9,6 22 12 29 15 ZZW 1008,8 39 0,0
24.10.2020 19:00:00 11,5 8,9 21 11 30 16 ZZW 1009,1 42 0,0
24.10.2020 18:00:00 12,4 8,3 27 14 33 18 ZW 1009,2 44 0,0
24.10.2020 17:00:00 12,4 8,7 22 12 34 18 ZW 1009,1 34 0,0
24.10.2020 16:00:00 12,6 8,3 29 16 37 20 WZW 1008,9 39 0,0
24.10.2020 15:00:00 13,1 8,6 26 14 32 17 WZW 1008,6 34 0,0
24.10.2020 14:00:00 13,3 8,6 27 15 39 21 WZW 1008,3 37 0,0
24.10.2020 13:00:00 13,5 8,6 29 16 44 24 WZW 1008,2 33 0,0
24.10.2020 12:00:00 13,4 8,0 34 18 47 25 WZW 1008,0 42 0,0
24.10.2020 11:00:00 13,0 9,6 34 18 47 26 WZW 1007,5 30 0,0
24.10.2020 10:00:00 12,9 10,3 38 21 49 26 WZW 1007,3 31 0,0
24.10.2020 09:00:00 12,8 10,7 40 22 51 27 WZW 1006,8 14 0,1
24.10.2020 08:00:00 12,6 11,3 31 17 38 20 WZW 1006,4 5 0,2
24.10.2020 07:00:00 12,4 11,1 29 16 41 22 WZW 1006,1 5 0,0
24.10.2020 06:00:00 12,5 11,2 34 18 43 23 ZW 1005,8 4,6 0,0
24.10.2020 05:00:00 12,5 11,2 34 18 42 23 ZW 1005,8 5 0,0
24.10.2020 04:00:00 12,3 11,0 31 17 41 22 ZW 1005,8 6 0,0
24.10.2020 03:00:00 12,5 11,1 34 19 43 23 ZW 1006,3 7 0,0
24.10.2020 02:00:00 12,2 10,9 28 15 38 20 ZW 1006,6 12 0,1
24.10.2020 01:00:00 12,4 10,6 31 17 40 21 ZZW 1007,0 16 0,0
24.10.2020 00:00:00 11,9 10,0 26 14 34 18 ZZW 1007,2 18 0,0
23.10.2020 23:00:00 11,5 9,1 22 12 27 15 ZW 1008,1 40 0,0
23.10.2020 22:00:00 11,2 8,9 22 12 29 15 ZW 1008,2 31 0,0
23.10.2020 21:00:00 11,7 9,3 21 12 28 15 WZW 1008,1 29 0,0
23.10.2020 20:00:00 11,7 9,4 21 11 30 16 WZW 1008,0 29 0,0
23.10.2020 19:00:00 12,1 9,5 26 14 33 18 WZW 1008,6 36 0,0
23.10.2020 18:00:00 12,2 9,4 27 15 35 19 WZW 1008,5 35 0,0
23.10.2020 17:00:00 12,2 9,6 26 14 31 17 WZW 1008,4 34 0,0
23.10.2020 16:00:00 12,5 9,3 28 15 34 19 WZW 1008,4 33 0,0
23.10.2020 15:00:00 13,0 9,4 29 16 37 20 WZW 1008,1 33 0,0
23.10.2020 14:00:00 13,2 9,4 24 13 33 18 WZW 1008,3 33 0,0
23.10.2020 13:00:00 13,5 9,9 29 15 37 20 WZW 1008,3 28 0,0
23.10.2020 12:00:00 13,0 9,4 30 16 37 20 WZW 1008,6 32 0,0
23.10.2020 11:00:00 12,5 10,0 29 16 44 24 WZW 1008,6 23 0,0
23.10.2020 10:00:00 11,9 9,6 29 15 45 25 W 1008,3 6 0,0
23.10.2020 09:00:00 12,1 9,8 35 19 50 27 WZW 1007,8 25 0,0
23.10.2020 08:00:00 11,9 9,3 39 21 52 28 W 1007,2 28 0,0
23.10.2020 07:00:00 12,1 8,9 39 21 55 30 W 1006,6 27 0,0
23.10.2020 06:00:00 12,0 9,0 44 24 58 32 WZW 1006,3 25 0,0
23.10.2020 05:00:00 12,1 9,3 45 25 53 28 WZW 1006,2 24 0,0
23.10.2020 04:00:00 12,1 9,3 41 22 54 29 WZW 1006,3 23 0,0
23.10.2020 03:00:00 12,2 8,9 39 21 51 28 WZW 1006,4 28 0,0
23.10.2020 02:00:00 12,5 9,0 41 22 50 27 W 1006,4 32 0,0
23.10.2020 01:00:00 13,0 10,2 41 22 57 31 WZW 1006,0 27 0,0
23.10.2020 00:00:00 13,5 10,1 41 22 50 27 ZW 1005,8 44 0,0
22.10.2020 23:00:00 13,3 10,5 33 18 44 24 ZW 1005,9 50 0,0
22.10.2020 22:00:00 13,0 10,5 23 13 35 19 ZZW 1006,1 44 0,0
22.10.2020 21:00:00 13,7 10,1 30 16 39 21 ZW 1006,2 43 0,0
22.10.2020 20:00:00 13,5 10,1 27 15 34 19 ZW 1006,4 46 0,0
22.10.2020 19:00:00 13,7 10,3 27 14 38 20 ZW 1006,7 36 0,0
22.10.2020 18:00:00 13,9 10,5 30 16 42 23 ZW 1007,2 31 0,0
22.10.2020 17:00:00 14,0 10,2 36 19 47 25 ZW 1006,8 38 0,0
22.10.2020 16:00:00 14,3 10,5 40 22 50 27 WZW 1006,8 34 0,0
22.10.2020 15:00:00 14,6 10,8 33 18 45 24 ZW 1006,7 32 0,0
22.10.2020 14:00:00 14,4 10,6 35 19 46 25 WZW 1006,7 31 0,0
22.10.2020 13:00:00 14,4 10,6 40 22 51 28 WZW 1006,6 32 0,0
22.10.2020 12:00:00 14,3 11,5 36 20 49 26 WZW 1006,6 38 0,0
22.10.2020 11:00:00 14,5 11,6 39 21 48 26 WZW 1006,4 36 0,0
22.10.2020 10:00:00 14,0 11,9 40 21 47 26 WZW 1006,1 25 0,0
22.10.2020 09:00:00 13,7 12,3 34 18 48 26 WZW 1005,6 16 0,0
22.10.2020 08:00:00 14,0 11,5 39 21 67 36 WZW 1004,5 38 0,0
22.10.2020 07:00:00 14,2 11,2 49 26 64 35 W 1002,7 33 0,0
22.10.2020 06:00:00 14,3 11,3 47 26 64 35 W 1000,9 32 0,0
22.10.2020 05:00:00 14,3 11,5 50 27 73 40 WZW 999,2 29 0,0
22.10.2020 04:00:00 13,7 11,9 56 31 74 40 WZW 998,0 13 0,0
22.10.2020 03:00:00 14,7 11,8 56 31 78 42 WZW 997,3 33 0,0

tt = temperatuur
td = dauwpunt
ff = windsnelheid
fx = windstoten
dd = windrichting
ppp = luchtdruk
vv = zicht
rr = neerslag

Weerstations in de omgeving